Location: Br�znic
(45.9167°N, 22.6500°E)
Time: 13:52:03
(UTC+00:00)

Cosmos 2242 Rocket - Pass Details

Date: 03 March 2021
Orbit: 617 x 652 km, 82.5° (Epoch: 11 April)

Event Time Altitude Azimuth Distance (km) Brightness Sun altitude
Rises 17:28:01 0° 355° (N) 2,960 7.2 -12.8°
Reaches altitude 10° 17:30:20 10° 360° (N) 2,040 6.3 -13.2°
Maximum altitude 17:34:46 54° 78° (ENE) 772 3.7 -14.0°
Drops below altitude 10° 17:39:07 10° 156° (SSE) 2,002 5.9 -14.7°
Sets 17:41:22 0° 161° (SSE) 2,899 6.7 -15.1°
